Simultaneous Nadir Overpasses (SNOs) Predictions

Prediction of SNOs between METOP-A and NOAA-19 Satellite Orbit:

Table of predicted SNOs for the next 14.0 days since TLE Epoch: 11/13/2020
Index Date (METOP-A) Time (METOP-A) Lat,Lon (METOP-A) SZA (METOP-A ) Date (NOAA-19) Time (NOAA-19) Lat,Lon (NOAA-19) SZA (NOAA-19 ) Distance(km) Time Diff (sec)
1 11/15/2020 07:41:01 -80.77,-102.07 80.27 11/15/2020 07:40:07 -80.76,-102.06 80.29 1.34 54
2 11/15/2020 08:31:42 80.76, 65.17 99.73 11/15/2020 08:31:02 80.76, 65.23 99.72 1.22 40
3 11/15/2020 09:22:23 -80.76,-127.55 80.27 11/15/2020 09:22:07 -80.75,-127.38 80.27 3.14 16
4 11/15/2020 10:13:04 80.75, 39.69 99.73 11/15/2020 10:13:03 80.76, 39.54 99.73 2.82 1
5 11/15/2020 11:03:45 -80.75,-153.03 80.27 11/15/2020 11:04:08 -80.76,-153.06 80.26 1.03 23
6 11/15/2020 11:54:26 80.74, 14.21 99.74 11/15/2020 11:55:03 80.76, 14.22 99.76 1.52 37
7 11/15/2020 12:45:07 -80.74,-178.51 80.27 11/15/2020 12:46:08 -80.75,-178.38 80.24 2.63 61
8 11/15/2020 13:35:47 80.76, -10.93 99.78 11/15/2020 13:37:02 80.75, -10.74 99.79 3.70 75
9 11/26/2020 08:54:25 -80.79,-120.42 77.86 11/26/2020 08:53:19 -80.77,-120.47 77.89 2.10 66
10 11/26/2020 09:45:06 80.78, 46.74 102.13 11/26/2020 09:44:14 80.77, 46.76 102.12 0.59 52
11 11/26/2020 10:35:47 -80.78,-145.90 77.87 11/26/2020 10:35:19 -80.77,-145.80 77.88 2.15 28
12 11/26/2020 11:26:28 80.77, 21.26 102.13 11/26/2020 11:26:14 80.77, 21.44 102.14 3.25 14
13 11/26/2020 12:17:09 -80.77,-171.38 77.87 11/26/2020 12:17:20 -80.77,-171.49 77.87 1.95 11
14 11/26/2020 13:07:49 80.78, -3.88 102.16 11/26/2020 13:08:14 80.76, -3.88 102.15 1.74 25
15 11/26/2020 13:58:31 -80.76, 163.14 77.87 11/26/2020 13:59:20 -80.77, 163.19 77.85 1.33 49
